Home > Weather > Prievidza > Past weeks

Flag for Slovakia Past Weather in Prievidza, Slovakia — Yesterday and Last 2 Weeks

Now
71 °F

Passing clouds.


Feels Like: 73 °F
Forecast: 53 / 83 °F
Wind: N/A

Location: Prievidza

Current Time: Jul 29, 2016 at 10:02:54 PM

Latest Report: Jul 29, 2016 at 9:00 PM


Visibility: 28 mi

Pressure: 29.91 "Hg

Humidity: 76%

Dew Point: 63 °F

Location of PrievidzaLocation

Past Weather in Prievidza — Graph

°F

Prievidza Temperature Yesterday

Maximum temperature yesterday: 76 °F (at 1:00 PM)
Minimum temperature yesterday: 66 °F (at 6:00 AM)
Average temperature yesterday: 69 °F

High & Low Weather Summary for the Past Weeks

 TemperatureHumidityPressure
High89 °F (Jul 23, 3:00 PM)95% (Jul 18, 3:00 AM)30.14 "Hg (Jul 18, 3:00 AM)
Low49 °F (Jul 15, 5:00 AM)32% (Jul 23, 1:00 PM)29.85 "Hg (Jul 29, 7:00 PM)
Average69 °F73%30.00 "Hg
* Reported Jul 14 9:00 PM — Jul 29 9:00 PM, Prievidza, Weather by CustomWeather, © 2016

Note: Actual official high and low records may vary slightly from our data, if they occured in-between our weather recording intervals... More about our weather records

Advertising

Prievidza Weather History for the Previous 24 Hours

Scroll right to see more
 ConditionsComfort  
Time TempWeatherWind HumidityBarometerVisibility
9:00 PM
Fri, Jul 29
71 °FPassing clouds.N/A76%29.91 "Hg28 mi
8:00 PM77 °FPassing clouds.N/A63%29.87 "Hg28 mi
7:00 PM80 °FPassing clouds.N/A62%29.85 "Hg22 mi
6:00 PM79 °FPartly sunny.1 mph67%29.87 "Hg19 mi
5:00 PM80 °FScattered clouds.N/A58%29.86 "Hg22 mi
4:00 PM75 °FThunderstorms. Scattered clouds.5 mph70%29.89 "Hg16 mi
3:00 PM81 °FThunderstorms. Partly sunny.6 mph73%29.87 "Hg16 mi
2:00 PM83 °FScattered clouds.5 mph73%29.87 "Hg19 mi
1:00 PM81 °FScattered clouds.2 mph73%29.89 "Hg16 mi
12:00 PM80 °FScattered clouds.N/A73%29.90 "Hg16 mi
11:00 AM78 °FScattered clouds.N/A73%29.93 "Hg11 mi
10:00 AM74 °FScattered clouds.No wind73%29.94 "Hg11 mi
9:00 AM71 °FPartly sunny.N/A80%29.95 "Hg12 mi
8:00 AM67 °FFog.N/A93%29.96 "Hg10 mi
7:00 AM61 °FCool.N/A95%29.97 "Hg2 mi
6:00 AM60 °FCool.No wind95%29.96 "Hg3 mi
5:00 AM60 °FCool.No wind95%29.96 "Hg2 mi
3:00 AM61 °FFog.N/A94%29.96 "Hg1 mi
2:00 AM62 °FFog.1 mph94%29.95 "Hg3 mi
1:00 AM64 °FFog.N/A93%29.95 "Hg3 mi
12:00 AM65 °FFog.N/A93%29.95 "Hg4 mi
11:00 PM
Thu, Jul 28
66 °FFog.No wind93%29.96 "Hg5 mi
10:00 PM67 °FPassing clouds.1 mph92%29.96 "Hg6 mi
Weather by CustomWeather, © 2016

See weather overviewHow to use our weather pages